TimeMDT,TemperatureF,Dew PointF,Humidity,Sea Level PressureIn,VisibilityMPH,Wind Direction,Wind SpeedMPH,Gust SpeedMPH,PrecipitationIn,Events,Conditions,WindDirDegrees,DateUTC
12:56 AM,41.0,34.0,76,29.71,10.0,ESE,3.5,-,N/A,,Mostly Cloudy,120,2013-10-10 06:56:00
1:56 AM,38.8,32.9,79,29.71,10.0,NW,8.1,-,N/A,,Scattered Clouds,320,2013-10-10 07:56:00
2:56 AM,34.0,31.1,89,29.71,10.0,NE,3.5,-,N/A,,Clear,50,2013-10-10 08:56:00
3:56 AM,32.0,30.0,92,29.70,10.0,SSE,8.1,-,N/A,,Clear,150,2013-10-10 09:56:00
4:56 AM,32.9,31.1,93,29.69,10.0,East,5.8,-,N/A,,Mostly Cloudy,90,2013-10-10 10:56:00
5:56 AM,32.9,31.1,93,29.70,10.0,ESE,6.9,-,N/A,,Partly Cloudy,110,2013-10-10 11:56:00
6:56 AM,32.9,31.1,93,29.69,10.0,SE,4.6,-,N/A,,Scattered Clouds,140,2013-10-10 12:56:00
7:56 AM,32.0,30.0,92,29.69,10.0,ENE,4.6,-,N/A,,Partly Cloudy,70,2013-10-10 13:56:00
8:56 AM,37.9,36.0,93,29.68,9.0,ENE,5.8,-,N/A,,Partly Cloudy,60,2013-10-10 14:56:00
9:56 AM,43.9,37.9,80,29.65,9.0,Calm,Calm,-,N/A,,Mostly Cloudy,0,2013-10-10 15:56:00
10:56 AM,47.8,38.8,71,29.66,8.0,NW,8.1,-,N/A,,Mostly Cloudy,310,2013-10-10 16:56:00
11:56 AM,50.9,34.9,54,29.61,8.0,Variable,4.6,-,N/A,,Partly Cloudy,0,2013-10-10 17:56:00
12:56 PM,54.0,36.0,51,29.57,8.0,North,6.9,-,N/A,,Clear,360,2013-10-10 18:56:00
1:56 PM,55.9,34.0,44,29.56,9.0,NNW,10.4,-,N/A,,Partly Cloudy,340,2013-10-10 19:56:00
2:56 PM,54.9,34.9,47,29.57,8.0,NW,16.1,-,N/A,,Mostly Cloudy,320,2013-10-10 20:56:00
3:56 PM,54.0,34.9,49,29.60,9.0,NW,10.4,-,N/A,,Partly Cloudy,310,2013-10-10 21:56:00
4:56 PM,52.9,34.9,50,29.61,9.0,Variable,4.6,-,N/A,,Overcast,0,2013-10-10 22:56:00
5:56 PM,47.8,36.9,66,29.65,10.0,South,6.9,-,N/A,,Overcast,170,2013-10-10 23:56:00
6:16 PM,44.6,39.2,81,29.76,2.0,SE,5.8,-,0.02,Rain,Light Rain,130,2013-10-11 00:16:00
6:22 PM,44.6,39.2,81,29.77,1.2,SE,5.8,-,0.08,Rain,Rain,140,2013-10-11 00:22:00
6:24 PM,44.6,39.2,81,29.77,0.8,SE,6.9,-,0.12,Rain,Heavy Rain,130,2013-10-11 00:24:00
6:28 PM,42.8,37.4,81,29.77,0.5,East,8.1,-,0.19,Rain,Light Rain,100,2013-10-11 00:28:00
6:32 PM,42.8,37.4,81,29.77,0.5,Variable,4.6,-,0.24,Rain,Heavy Rain,0,2013-10-11 00:32:00
6:39 PM,41.0,37.4,87,29.78,1.0,SE,6.9,-,0.30,Rain,Heavy Rain,130,2013-10-11 00:39:00
6:43 PM,39.2,37.4,93,29.78,1.5,SSE,8.1,-,0.30,Rain,Light Rain,160,2013-10-11 00:43:00
6:45 PM,39.2,37.4,93,29.77,2.0,SE,10.4,-,0.30,Rain,Light Rain,140,2013-10-11 00:45:00
6:47 PM,39.2,37.4,93,29.77,4.0,SE,10.4,-,0.30,Rain,Light Rain,130,2013-10-11 00:47:00
6:56 PM,43.0,36.9,79,29.70,8.0,Variable,5.8,-,0.31,Rain,Light Rain,0,2013-10-11 00:56:00
7:56 PM,41.9,38.8,89,29.73,9.0,ENE,8.1,-,0.00,,Overcast,70,2013-10-11 01:56:00
8:56 PM,41.9,38.8,89,29.72,8.0,ENE,4.6,-,N/A,,Overcast,60,2013-10-11 02:56:00
9:56 PM,41.9,38.8,89,29.73,8.0,South,4.6,-,N/A,,Mostly Cloudy,190,2013-10-11 03:56:00
10:30 PM,41.0,39.2,93,29.84,7.0,Calm,Calm,-,N/A,,Overcast,0,2013-10-11 04:30:00
10:56 PM,41.0,39.9,96,29.71,7.0,Calm,Calm,-,N/A,,Overcast,0,2013-10-11 04:56:00
11:56 PM,41.0,37.9,89,29.71,9.0,Calm,Calm,-,N/A,,Overcast,0,2013-10-11 05:56:00